WESTFORD NEEDLES, 19946

Orbit data source: Space-Track

WESTFORD NEEDLES, 19946 is space debris in LEO originally from a launch on Thu, 09 May 1963 UTC launched from the Air Force Western Test Range (AFWTR). Debris objects in space refer to the collection of defunct objects orbiting the Earth. Examples of debris include non-operational satellites, rocket bodies, and fragments generated from explosions, collisions, or faulty payload assembly.

Loading next visibility...
Identifier
19946, 1963-014EU
Orbit
LEO
Country
Flag of USUS
Related business
Manufacturer
Unknown
Mission
Spacecraft
Bus & Motor
Unknown
Mass
Unknown
Launch date (UTC)
1963-05-09 (63 years ago)
Launch vehicle
Unknown
Launch site
Air Force Western Test Range (AFWTR)
Object type
Payload
Rocket body
Debris
Shape & HBR
Unknown shape, 0.2 m
Radar Cross Section
Medium (>0.1 m² and <1 m²)

Expand to show TLE details & history
Last TLE update: 3 days ago

TLE from 3 days ago
0 WESTFORD NEEDLES
1 19946U 63014EU  26034.79209698  .00001126  00000-0  47295+0 0  9994
2 19946  87.1702 336.0113 0382227  54.6582 330.8281  8.68452897176991
Epoch: 2026-02-03T19:00Z
TLE epoch observation values (Epoch: 2026-02-03T19:00:37.179Z)
Latitude
23.2432°
Longitude
-81.90007°
Altitude
3,291.822 km
Speed
6.528 km/s
True Right ascension
22h 28m 53s
True Declination
23° 09' 05"
Sunlit
Object was in daylight at epoch
Visualization orbit readout
Latitude
Unknown
Longitude
Unknown
Altitude
Unknown
Speed
Unknown
Apparent Right ascension
Unknown
Apparent Declination
Unknown
Sunlit
N/A
Visualization observer readout
Local Sidereal Time
16:06:51
Azimuth
Unknown
Elevation
Unknown
Doppler factor
Unknown
Orbital elements
Apogee altitude
3,999.535 km
Perigee altitude
3,235.416 km
Semi-major axis
9,995.613 km
Eccentricity
0.03822
Inclination
87.1702°
RAAN
336.0113°
Arg. of periapsis
54.6582°
True anomaly
328.60094°
Mean anomaly
330.8281°
Eccentric anomaly
329.72398°
Mean motion
2.17185 °/min
Orbital period
165.76 mins
BSTAR
0.47295
Loading maneuver chart data...
Computing Atmospheric mass density...

Documentation

Showing up to 5 results
|